Fallon NAS, NV

12:06 PM PDT on June 23, 2017 (GMT -0700)
Fallon Naval Air Station

Weather History for KNFL - January, 2015

Change the Weather History Date:

Thursday, January 29, 2015

  Actual Average Record
Temperature  
Mean Temperature 45 °F -  
Max Temperature 53 °F 46 °F 66 °F (2014)
Min Temperature 37 °F 19 °F -13 °F (1949)
Degree Days  
Heating Degree Days 20    
Moisture  
Dew Point 36 °F    
Average Humidity 79    
Maximum Humidity 93    
Minimum Humidity 55    
Precipitation  
Precipitation 0.00 in - - ()
Sea Level Pressure  
Sea Level Pressure 30.12 in    
Wind  
Wind Speed 2 mph (WNW)    
Max Wind Speed 7 mph    
Max Gust Speed -    
Visibility 10 miles    
Events      
Averages and records for this station are not official NWS values.
T = Trace of Precipitation, MM = Missing Value Source: NWS Daily Summary

Daily Weather History Graph

Daily Weather History Graph

Search for Another Location

Airport or City:

Trip Planner

Search our weather history database for the weather conditions in past years. The results will help you decide how hot, cold, wet, or windy it might be!

Date:

Astronomy

Jan. 29, 2015 Rise Set
Actual Time 7:04 AM PST 5:11 PM PST
Civil Twilight 6:36 AM PST 5:40 PM PST
Nautical Twilight 6:03 AM PST 6:12 PM PST
Astronomical Twilight 5:32 AM PST 6:44 PM PST
Moon 1:03 PM PST (1/29) 2:41 AM PST (1/29)
Length of Visible Light 11h 03m
Length of Day
10h 06m
Waxing Gibbous, 76% of the Moon is Illuminated
Jan 29
Waxing Gibbous
Feb 3
Full
Feb 11
Last Quarter
Feb 18
New
Feb 25
First Quarter

Hourly Weather History & Observations

Time (PST) Temp. Windchill Dew Point Humidity Pressure Visibility Wind Dir Wind Speed Gust Speed Precip Events Conditions
12:56 AM 37.0 °F - 34.0 °F 89% 30.17 in 10.0 mi Calm Calm - N/A   Overcast
1:56 AM 37.0 °F 34.5 °F 35.1 °F 93% 30.17 in 10.0 mi WSW 3.5 mph - N/A   Overcast
2:56 AM 37.0 °F 34.5 °F 34.0 °F 89% 30.16 in 10.0 mi West 3.5 mph - N/A   Overcast
3:56 AM 37.9 °F - 35.1 °F 89% 30.15 in 10.0 mi Calm Calm - N/A   Overcast
4:56 AM 37.0 °F 34.5 °F 35.1 °F 93% 30.14 in 10.0 mi South 3.5 mph - N/A   Overcast
5:56 AM 37.9 °F - 35.1 °F 89% 30.14 in 10.0 mi Calm Calm - N/A   Overcast
6:56 AM 37.9 °F 35.5 °F 35.1 °F 89% 30.15 in 10.0 mi SSW 3.5 mph - N/A   Mostly Cloudy
7:56 AM 37.9 °F 35.5 °F 36.0 °F 93% 30.16 in 10.0 mi South 3.5 mph - N/A   Mostly Cloudy
8:56 AM 41.0 °F - 36.0 °F 82% 30.17 in 10.0 mi Calm Calm - N/A   Mostly Cloudy
9:56 AM 43.0 °F - 37.0 °F 80% 30.17 in 10.0 mi Calm Calm - N/A   Mostly Cloudy
10:56 AM 46.0 °F - 36.0 °F 68% 30.16 in 10.0 mi Calm Calm - N/A   Mostly Cloudy
11:56 AM 48.0 °F - 37.0 °F 66% 30.14 in 10.0 mi Variable 3.5 mph - N/A   Mostly Cloudy
12:56 PM 50.0 °F - 37.0 °F 61% 30.11 in 10.0 mi Calm Calm - N/A   Mostly Cloudy
1:56 PM 51.1 °F - 37.0 °F 59% 30.09 in 10.0 mi Calm Calm - N/A   Mostly Cloudy
2:56 PM 52.0 °F - 37.0 °F 57% 30.07 in 10.0 mi Calm Calm - N/A   Mostly Cloudy
3:56 PM 53.1 °F - 37.0 °F 55% 30.06 in 10.0 mi North 5.8 mph - N/A   Scattered Clouds
4:56 PM 50.0 °F - 37.9 °F 63% 30.06 in 10.0 mi NNE 6.9 mph - N/A   Scattered Clouds
5:56 PM 44.1 °F 40.8 °F 37.9 °F 79% 30.08 in 10.0 mi NNE 5.8 mph - N/A   Scattered Clouds
6:56 PM 44.1 °F 40.8 °F 37.9 °F 79% 30.08 in 10.0 mi NE 5.8 mph - N/A   Mostly Cloudy
7:56 PM 43.0 °F 41.3 °F 37.9 °F 82% 30.08 in 10.0 mi ENE 3.5 mph - N/A   Mostly Cloudy
8:56 PM 43.0 °F - 39.0 °F 86% 30.08 in 10.0 mi Calm Calm - N/A   Mostly Cloudy
9:56 PM 41.0 °F 38.0 °F 37.9 °F 89% 30.07 in 10.0 mi WNW 4.6 mph - N/A   Mostly Cloudy
10:56 PM 39.9 °F 37.8 °F 37.0 °F 89% 30.07 in 9.0 mi SSW 3.5 mph - N/A   Overcast
11:56 PM 39.9 °F - 37.0 °F 89% 30.07 in 9.0 mi Calm Calm - N/A   Overcast